Torna al catalogo

STARLINK-31622

AttivoComunicazioniVLEO
NORAD 59456·PAYLOAD·🇺🇸 United States

Lanciato Apr 10, 2024 da Cape Canaveral Space Force Station

Loading…

Prossimi Passaggi (prossime 24 ore)

TLE

AggiornatoSource: CelesTrak SupGP

Epoca: Sep 15, 2026, 02:45 UTC

1 59456C 24068B   26258.11506944 -.00028110  00000+0 -10175-2 0  2589
2 59456  43.0045  44.9583 0002072 281.3542 321.6786 15.27611970    19

Traccia STARLINK-31622 in tempo reale con AllMySat

Download on the App Store